Weather in Voznesenske

Ukraine / Kyiv Region     50°24′37″N   32°01′52″E
temp.,
°C
wind,
m/s
gust,
m/s
humid.,
%
clouds,
%
prec.,
mm/h
press.,
hPa
HPBL,
m
28 november, sun
sun2823:00+7w249238 0.0 100375
02:00+4nnw22885 0.0 100410
05:00+4ese22875 0.0 100516
08:00+4sse34935 0.0 100556
11:00+7sse3578100 0.0 1006204
14:00+9se477798 0.0 1005315
17:00+6se41091100 0.0 1004201
20:00+7se61486100 0.0 1003324
29 november, mon
mon2923:00+7sse399693 0.4 1003245
02:00+7se4899100 0.4 1001178
05:00+8se51098100 0.0 999356
08:00+9se51191100 0.0 997496
11:00+9se61389100 0.0 994743
14:00+10sse51195100 0.4 991559
17:00+9se3798100 0.3 987231
20:00+9ssw3798100 1.6 983188
30 november, tue
tue3023:00+8w71291100 1.0 983775
02:00+2w111995100 5.6 9881014
05:00+2w121976100 0.8 9921188
08:00+2wsw111772100 0.8 9951303
11:00+2wsw91570100 0.0 9971355
14:00+3wsw91466100 0.0 9971361
17:00+2w7137223 0.0 998852
20:00+1w6117586 0.0 999625
1 december, wed
wed123:00−1w612775 0.0 999665
02:00−1wsw51080100 0.0 999588
05:00−1sw51093100 0.1 998598
08:00−1sw61396100 1.6 997693
11:00+1wsw61192100 0.6 997776
14:00+1wnw61090100 0.8 999968
17:00+1wnw5983100 0.1 1002623
20:000wsw2485100 0.1 1003129
2 december, thu
thu223:000ssw3899100 0.0 1003336
02:00+1ssw61398100 0.8 1003554
05:00+3sw81586100 1.2 1001576
08:00+3sw7168295 1.3 1002464
11:00+5sw6138053 0.0 1003561
14:00+6sw5117783 0.0 1003489
17:00+4ssw4118578 0.0 1004225
20:00+3ssw410875 0.0 1004194